| time (UTC) | temp F | wind direction | speed MPH | gust MPH | rain 1hr in | rain 24hr in | rain mn in | humidity % | barometer mb |
| 20260904120030 | 71 | 103 | 0.0 | 1.0 | 0.00 | 0.38 | 0.38 | 96 | 1010.2 |
| 20260904114530 | 71 | 104 | 0.0 | 2.0 | 0.00 | 0.38 | 0.38 | 95 | 1010.2 |
| 20260904113030 | 70 | 136 | 0.0 | 1.0 | 0.00 | 0.38 | 0.38 | 96 | 1010.1 |
| 20260904111528 | 71 | 173 | 0.0 | 1.0 | 0.00 | 0.38 | 0.38 | 96 | 1009.9 |
| 20260904110028 | 71 | 161 | 0.0 | 1.0 | 0.00 | 0.38 | 0.38 | 96 | 1010.0 |
| 20260904104527 | 71 | 200 | 0.0 | 2.0 | 0.03 | 0.38 | 0.38 | 96 | 1009.9 |
| 20260904103028 | 71 | 310 | 0.0 | 1.0 | 0.11 | 0.38 | 0.38 | 96 | 1009.9 |
| 20260904101526 | 71 | 310 | 0.0 | 1.0 | 0.31 | 0.38 | 0.38 | 95 | 1010.0 |
| 20260904100025 | 71 | 30 | 0.0 | 1.0 | 0.36 | 0.38 | 0.38 | 95 | 1009.7 |
| 20260904094525 | 71 | 91 | 0.0 | 1.0 | 0.35 | 0.35 | 0.35 | 95 | 1008.8 |
| 20260904093023 | 72 | 188 | 1.0 | 2.0 | 0.26 | 0.26 | 0.26 | 95 | 1009.6 |
| 20260904091536 | 72 | 101 | 0.0 | 0.0 | 0.06 | 0.06 | 0.06 | 94 | 1009.8 |
| 20260904090018 | 72 | 101 | 0.0 | 1.0 | 0.02 | 0.02 | 0.02 | 94 | 1009.8 |
| 20260904084518 | 72 | 182 | 0.0 | 0.0 | 0.00 | 0.14 | 0.00 | 94 | 1009.6 |
| 20260904083026 | 71 | 181 | 0.0 | 0.0 | 0.00 | 0.14 | 0.00 | 94 | 1009.4 |
| 20260904081544 | 71 | 61 | 0.0 | 1.0 | 0.00 | 0.14 | 0.00 | 94 | 1009.6 |
| 20260904080041 | 71 | 295 | 0.0 | 3.0 | 0.00 | 0.14 | 0.00 | 94 | 1009.8 |
| 20260904074558 | 71 | 248 | 0.0 | 1.0 | 0.00 | 0.14 | 0.00 | 94 | 1009.2 |
| 20260904073040 | 71 | 300 | 0.0 | 0.0 | 0.00 | 0.14 | 0.00 | 95 | 1009.1 |
| 20260904071553 | 71 | 300 | 0.0 | 1.0 | 0.00 | 0.14 | 0.00 | 95 | 1009.2 |
| 20260904070035 | 71 | 300 | 0.0 | 0.0 | 0.00 | 0.14 | 0.00 | 95 | 1009.6 |
| 20260904064535 | 71 | 300 | 0.0 | 0.0 | 0.00 | 0.14 | 0.00 | 95 | 1009.7 |
| 20260904063043 | 71 | 300 | 0.0 | 0.0 | 0.00 | 0.14 | 0.00 | 94 | 1009.9 |
| 20260904061530 | 71 | 300 | 0.0 | 0.0 | 0.00 | 0.14 | 0.00 | 95 | 1010.1 |
| 20260904060029 | 71 | 300 | 0.0 | 0.0 | 0.00 | 0.14 | 0.00 | 94 | 1010.4 |
| 20260904054534 | 71 | 300 | 0.0 | 0.0 | 0.00 | 0.14 | 0.00 | 94 | 1010.3 |
| 20260904053026 | 71 | 300 | 0.0 | 0.0 | 0.00 | 0.14 | 0.00 | 94 | 1010.6 |
| 20260904051522 | 71 | 300 | 0.0 | 0.0 | 0.00 | 0.14 | 0.00 | 94 | 1010.9 |
| 20260904050020 | 71 | 300 | 0.0 | 0.0 | 0.00 | 0.14 | 0.00 | 94 | 1011.1 |
| 20260904044519 | 71 | 300 | 0.0 | 0.0 | 0.00 | 0.14 | 0.00 | 94 | 1011.0 |
| 20260904043017 | 71 | 300 | 0.0 | 0.0 | 0.00 | 0.14 | 0.00 | 93 | 1011.2 |
| 20260904041523 | 71 | 300 | 0.0 | 0.0 | 0.00 | 0.14 | 0.00 | 93 | 1011.3 |
| 20260904040011 | 71 | 300 | 0.0 | 1.0 | 0.00 | 0.14 | 0.00 | 93 | 1011.4 |
| 20260904034511 | 71 | 300 | 0.0 | 0.0 | 0.00 | 0.14 | 0.14 | 93 | 1011.5 |
| 20260904033010 | 71 | 299 | 0.0 | 0.0 | 0.00 | 0.14 | 0.14 | 92 | 1011.7 |
| 20260904031509 | 71 | 299 | 0.0 | 0.0 | 0.00 | 0.14 | 0.14 | 92 | 1011.4 |
| 20260904030009 | 71 | 299 | 0.0 | 0.0 | 0.00 | 0.14 | 0.14 | 92 | 1011.5 |
| 20260904024509 | 71 | 299 | 0.0 | 1.0 | 0.00 | 0.14 | 0.14 | 92 | 1011.6 |
| 20260904023010 | 72 | 299 | 0.0 | 0.0 | 0.00 | 0.14 | 0.14 | 91 | 1011.9 |
| 20260904021519 | 72 | 300 | 0.0 | 1.0 | 0.00 | 0.14 | 0.14 | 91 | 1012.1 |
| 20260904020107 | 72 | 300 | 0.0 | 0.0 | 0.00 | 0.14 | 0.14 | 91 | 1012.1 |
| 20260904014505 | 72 | 300 | 0.0 | 1.0 | 0.00 | 0.14 | 0.14 | 91 | 1012.3 |
| 20260904013005 | 72 | 300 | 0.0 | 0.0 | 0.00 | 0.14 | 0.14 | 90 | 1012.4 |
| 20260904011506 | 72 | 300 | 0.0 | 1.0 | 0.00 | 0.14 | 0.14 | 90 | 1012.3 |
| 20260904010003 | 72 | 300 | 0.0 | 0.0 | 0.00 | 0.14 | 0.14 | 89 | 1012.3 |
| 20260904004502 | 73 | 300 | 0.0 | 0.0 | 0.00 | 0.14 | 0.14 | 89 | 1012.2 |
| 20260904003003 | 73 | 300 | 0.0 | 0.0 | 0.00 | 0.14 | 0.14 | 89 | 1012.1 |
| 20260904001600 | 73 | 300 | 0.0 | 0.0 | 0.00 | 0.14 | 0.14 | 88 | 1012.0 |
| 20260904000058 | 73 | 300 | 0.0 | 1.0 | 0.00 | 0.14 | 0.14 | 87 | 1011.8 |
| 20260903234557 | 74 | 296 | 0.0 | 0.0 | 0.00 | 0.14 | 0.14 | 86 | 1011.7 |
| 20260903233057 | 74 | 296 | 0.0 | 1.0 | 0.00 | 0.14 | 0.14 | 85 | 1011.6 |
| 20260903231605 | 75 | 296 | 0.0 | 2.0 | 0.00 | 0.14 | 0.14 | 85 | 1011.4 |
| 20260903224554 | 76 | 291 | 0.0 | 5.0 | 0.00 | 0.14 | 0.14 | 83 | 1011.7 |
| 20260903223053 | 76 | 267 | 0.0 | 3.0 | 0.00 | 0.14 | 0.14 | 82 | 1011.7 |
| 20260903221552 | 77 | 270 | 0.0 | 2.0 | 0.00 | 0.14 | 0.14 | 81 | 1011.7 |
| 20260903220053 | 78 | 211 | 1.0 | 3.0 | 0.00 | 0.14 | 0.14 | 80 | 1011.6 |
| 20260903214559 | 78 | 286 | 1.0 | 5.0 | 0.00 | 0.14 | 0.14 | 79 | 1011.8 |
| 20260903213054 | 79 | 307 | 2.0 | 5.0 | 0.00 | 0.14 | 0.14 | 78 | 1011.9 |
| 20260903211551 | 80 | 189 | 1.0 | 3.0 | 0.00 | 0.14 | 0.14 | 76 | 1011.8 |
| 20260903210049 | 81 | 210 | 1.0 | 5.0 | 0.00 | 0.14 | 0.14 | 76 | 1011.8 |
| 20260903204551 | 81 | 172 | 1.0 | 5.0 | 0.00 | 0.14 | 0.14 | 77 | 1011.9 |
| 20260903203052 | 80 | 89 | 2.0 | 5.0 | 0.00 | 0.14 | 0.14 | 76 | 1011.6 |
| 20260903201544 | 80 | 272 | 2.0 | 5.0 | 0.00 | 0.14 | 0.14 | 77 | 1011.7 |
| 20260903200048 | 78 | 311 | 1.0 | 4.0 | 0.00 | 0.14 | 0.14 | 81 | 1011.8 |
| 20260903194544 | 78 | 288 | 1.0 | 5.0 | 0.00 | 0.14 | 0.14 | 81 | 1012.2 |
| 20260903193039 | 78 | 278 | 1.0 | 4.0 | 0.00 | 0.14 | 0.14 | 81 | 1012.4 |
| 20260903191539 | 78 | 293 | 0.0 | 5.0 | 0.00 | 0.14 | 0.14 | 82 | 1012.4 |
| 20260903190037 | 77 | 310 | 2.0 | 6.0 | 0.00 | 0.14 | 0.14 | 80 | 1012.7 |
| 20260903184536 | 78 | 272 | 1.0 | 6.0 | 0.00 | 0.14 | 0.14 | 79 | 1012.6 |
| 20260903183035 | 78 | 253 | 2.0 | 5.0 | 0.00 | 0.14 | 0.14 | 78 | 1012.6 |
| 20260903181535 | 80 | 291 | 0.0 | 5.0 | 0.00 | 0.14 | 0.14 | 74 | 1012.7 |
| 20260903180050 | 79 | 94 | 0.0 | 7.0 | 0.00 | 0.14 | 0.14 | 77 | 1012.7 |
| 20260903174533 | 80 | 307 | 2.0 | 6.0 | 0.00 | 0.14 | 0.14 | 74 | 1012.6 |
| 20260903173031 | 79 | 306 | 1.0 | 7.0 | 0.00 | 0.14 | 0.14 | 77 | 1012.7 |
| 20260903171527 | 78 | 315 | 2.0 | 5.0 | 0.00 | 0.14 | 0.14 | 80 | 1013.3 |
| 20260903170026 | 77 | 256 | 1.0 | 7.0 | 0.00 | 0.14 | 0.14 | 81 | 1013.1 |
| 20260903164524 | 76 | 317 | 2.0 | 10.0 | 0.00 | 0.14 | 0.14 | 83 | 1013.3 |
| 20260903163037 | 76 | 194 | 2.0 | 8.0 | 0.00 | 0.14 | 0.14 | 84 | 1013.3 |
| 20260903161517 | 75 | 298 | 1.0 | 5.0 | 0.00 | 0.14 | 0.14 | 86 | 1013.4 |
| 20260903160016 | 75 | 210 | 2.0 | 10.0 | 0.00 | 0.14 | 0.14 | 86 | 1013.5 |
| 20260903154514 | 75 | 276 | 1.0 | 6.0 | 0.00 | 0.14 | 0.14 | 87 | 1013.8 |
| 20260903153013 | 76 | 272 | 1.0 | 5.0 | 0.00 | 0.14 | 0.14 | 86 | 1013.9 |
| 20260903151509 | 74 | 258 | 1.0 | 5.0 | 0.00 | 0.14 | 0.14 | 89 | 1013.9 |
| 20260903150008 | 74 | 293 | 1.0 | 5.0 | 0.00 | 0.14 | 0.14 | 89 | 1014.0 |
| 20260903144507 | 74 | 288 | 0.0 | 4.0 | 0.00 | 0.14 | 0.14 | 89 | 1014.3 |
| 20260903143011 | 75 | 230 | 1.0 | 3.0 | 0.00 | 0.14 | 0.14 | 88 | 1014.3 |
| 20260903141503 | 74 | 104 | 0.0 | 3.0 | 0.00 | 0.14 | 0.14 | 91 | 1014.1 |
| 20260903140100 | 73 | 289 | 0.0 | 2.0 | 0.00 | 0.14 | 0.14 | 93 | 1014.0 |
| 20260903134555 | 72 | 213 | 0.0 | 2.0 | 0.00 | 0.14 | 0.14 | 93 | 1014.3 |
| 20260903133052 | 72 | 131 | 0.0 | 1.0 | 0.00 | 0.14 | 0.14 | 95 | 1014.6 |
| 20260903131551 | 72 | 326 | 0.0 | 1.0 | 0.00 | 0.14 | 0.14 | 95 | 1014.7 |
| 20260903130111 | 71 | 312 | 0.0 | 1.0 | 0.00 | 0.14 | 0.14 | 95 | 1015.1 |
| 20260903124549 | 71 | 272 | 0.0 | 3.0 | 0.00 | 0.14 | 0.14 | 95 | 1014.9 |
| 20260903123049 | 71 | 220 | 0.0 | 2.0 | 0.00 | 0.14 | 0.14 | 95 | 1015.0 |
| 20260903121547 | 71 | 225 | 0.0 | 2.0 | 0.00 | 0.14 | 0.14 | 96 | 1015.0 |